www.pogodaiklimat.ru
Время
и дата
04:53 30.12
05:53 30.12
06:53 30.12
07:03 30.12
07:30 30.12
07:53 30.12
08:53 30.12
09:53 30.12
10:53 30.12
11:53 30.12
12:10 30.12
12:53 30.12
13:48 30.12
13:53 30.12
14:53 30.12
15:38 30.12
15:53 30.12
16:53 30.12
17:53 30.12
18:10 30.12
18:53 30.12
19:03 30.12
19:40 30.12
19:53 30.12
20:53 30.12
21:53 30.12
22:53 30.12
23:53 30.12
00:53 31.12
01:53 31.12
02:53 31.12
03:53 31.12
04:53 31.12
05:53 31.12
06:53 31.12
07:53 31.12
08:53 31.12
09:11 31.12
09:36 31.12
09:46 31.12
09:53 31.12
10:50 31.12
10:53 31.12
11:36 31.12
11:53 31.12
12:53 31.12
13:53 31.12
14:53 31.12
Ветер
(напр.,м/с)
Видим. Явления Облачность Т
(С)
Тd
(С)
f
(%)
Тe
(С)
Тes
(С)
Комфортность P
(гПа)
Po
(гПа)
Тmin
(С)
Tmax
(С)
R
(мм)
R24
(мм)
S
(см)
Ю 2 16 км 10/10 510 м +2.2 -1.1 79 -3 -3 1006.0 1005.3
Ю 3
{5}
13 км слабый дождь со снегом 10/10 660 м +2.8 -1.1 75 -3 -3 1005.2 1004.6
Ю 3
{4}
11 км слабый дождь со снегом 10/10 360 м +2.2 -0.6 82 -4 -4 1004.1 1003.2 0.8
Ю 2
{4}
13 км слабый дождь 10/10 360 м +2.2 0.0 85 -3 -3 1003.2
ЮЗ 3
{4}
0 м дождь со снегом 10/10 300 м +2.2 -0.6 82 -4 -4 1003.9
З 3 16 км слабый дождь 10/10 300 м +2.2 0.0 85 -4 -4 1004.6 1003.9
ЮЗ 4
{4}
16 км 8/8 720 м +2.8 0.0 82 -4 -4 1004.6 1003.9
ЮЗ 2 16 км слабый дождь 8/8 300 м +3.3 +1.1 85 -1 -1 1005.1 1004.2 -0.6 +3.3 2.5
ЮЗ 2 16 км 10/8 300 м
[Ac]
+3.9 +1.7 86 -1 -1 1005.4 1004.6
нст 1 16 км слабый дождь 10/10 900 м +4.4 +2.2 86 +2 +2 1005.3 1004.6
Ю 1 14 км слабый дождь 10/10 390 м +4.4 +1.7 83 +1 +1 1004.6
ЮЗ 1 16 км 8/8 390 м +5.6 +2.8 82 +2 +3 1005.0 1004.2 0.8
З 1 5 км дождь 10/10 510 м +6.0 +3.0 81 +3 +3 1004.6
ЮЗ 2 6 км слабый дождь 10/10 510 м +5.6 +2.8 82 +2 +2 1005.2 1004.2
ЮЗ 1 16 км 10/10 450 м +6.1 +3.3 82 +3 +3 1005.0 1004.2
З 1 16 км слабый дождь 10/10 570 м +6.1 +3.3 82 +3 +3 1004.6
З 1 16 км 10/10 570 м +6.1 +3.3 82 +3 +3 1005.5 1004.6 +3.9 +6.7 3.0
ЮЗ 2 16 км 8/8 1110 м +5.6 +2.2 79 +2 +2 1005.7 1004.9
З 1 16 км 10/10 810 м +5.6 +2.2 79 +2 +2 1006.3 1005.6
З 1 16 км 10/8 870 м
[Ac]
+5.6 +2.2 79 +2 +2 1005.6
СЗ 1 16 км 10/10 930 м +5.6 +1.7 76 +2 +2 1006.9 1006.3
СЗ 1 16 км 10/10 870 м +5.0 +1.7 79 +2 +2 1006.3
З 2 16 км слабый дождь 10/10 870 м +5.0 +1.7 79 0 0 1006.6
З 2 16 км слабый дождь 10/10 1140 м +5.0 +1.7 79 0 0 1007.7 1007.0
З 1 16 км 8/5 1050 м
[Ac]
+3.3 +0.6 82 0 0 1008.0 1007.3
СЗ 1 16 км 10/10 1050 м +3.9 +0.6 79 +1 +1 1008.7 1008.0 +3.3 +6.7 0.3
З 1 16 км 10/10 1350 м +3.3 +0.6 82 0 0 1009.2 1008.3
З 1 16 км 2/2 1500 м +1.7 -0.6 85 -3 -3 1009.4 1008.6
штиль 0 16 км 10/10 1650 м +2.8 0.0 82 +2 +2 1009.9 1009.0
штиль 0 16 км 10/10 1800 м +3.3 +0.6 82 +2 +2 1009.9 1009.0
ЮЗ 1 16 км слабый дождь 10/10 1500 м +2.8 -0.6 78 0 0 1010.3 1009.7
ЮЗ 2 16 км 10/10 1350 м +2.8 -0.6 78 -2 -2 1010.6 1010.0 +1.7 +3.9 5.8
ЮЗ 1 16 км 10/10 1380 м +2.2 -0.6 82 -2 -2 1010.5 1009.7
штиль 0 16 км 10/10 1500 м +2.2 0.0 85 +1 +1 1010.9 1010.0
штиль 0 16 км слабый дождь 10/10 1500 м +2.2 0.0 85 +1 +1 1011.4 1010.7
штиль 0 16 км 10/10 870 м +2.2 0.0 85 +1 +1 1012.3 1011.7
штиль 0 16 км слабый дождь 8/8 810 м
[Ac]
+2.2 0.0 85 +1 +1 1013.4 1012.7
штиль 0 16 км 8/8 330 м
[Ac]
+2.8 0.0 82 +2 +2 1013.0
СЗ 1 16 км 8/8 270 м
[Ac]
+2.8 0.0 82 -1 -1 1013.4
СЗ 2 16 км 8/8 150 м +2.8 0.0 82 -2 -2 1013.7
СЗ 2 16 км 8/8 150 м +2.8 0.0 82 -2 -2 1014.6 1013.7 +1.7 +2.8
С 1 16 км 8/8 300 м +3.0 -1.0 75 0 0 1014.4
нст 1 16 км 8/8 300 м +2.8 -0.6 78 0 0 1015.2 1014.4
В 2 16 км 8/8 390 м +1.1 -2.8 75 -4 -3 1014.7
ЮВ 2 16 км 8/8 450 м +1.7 -3.3 69 -4 -3 1015.5 1014.7
В 2 16 км 8/8 570 м +1.7 -3.9 66 -4 -3 1015.9 1015.1
ЮВ 2 16 км 8/8 630 м +1.1 -3.9 69 -4 -3 1016.9 1016.1
ЮВ 2 16 км 8/8 630 м +1.7 -4.4 64 -4 -3 1017.7 1017.1
Местоположение метеостанции Portland International Airport: широта 45.5958 долгота -122.6092 высота над уровнем моря 6 м.
В архиве по умолчанию представлена погода в Портленде за последние 1-2 суток. Обновление информации о фактической погоде в базе происходит ежечасно! Архивные данные за месяц целиком и за предыдущие месяцы Вы можете получить, выбрав интересующий диапазон дат из раскрывающегося списка и нажав кнопку "Ввод!".
Внимание! Архив погоды МЕТАР в базе сайта по станциям, не включенным в климатический монитор, хранится не более 60 дней. Нет смысла пытаться выбрать более раннюю дату.
*Определитесь, кто Вы:
Внимание! Время в таблицах - местное (без учета летнего времени). Для получения всемирного времени необходимо вычесть поправку, которая равна -8 ч.
Смотрите также архив погоды в соседних городах и на ближайших метеорологических станциях:
Партнеры нашего сайта:      
Пояснения к столбцам:
  • Ветер - указаны скорость ветра в м/с - средняя за 10 мин, порывы в срок и между сроками (в фигурных скобках) и направление, откуда дует ветер: С - северный,
  • СВ - северо-восточный, В - восточный, ЮВ - юго-восточный, Ю - южный, ЮЗ - юго-западный, З - западный, СЗ - северо-западный.
  • Видимость - горизонтальная дальность видимости в метрах или километрах. При видимости от 1 до 10 км при отсутствии осадков обычно наблюдается дымка, при ухудшении видимости до 1 км и менее - туман. В сухую погоду видимость может ухудшаться дымом, пылью или мглою.
  • Явления - указаны атмосферные явления, наблюдавшиеся в срок или в последний час перед сроком; фигурными скобками обозначены явления, наблюдавшиеся между сроками (за 1-3 часа до срока); квадратными скобками обозначены град или гололедные отложения с указанием их диаметра в мм.
  • Облачность - указаны через наклонную черту общая и нижняя облачность в баллах и высота нижней границы облаков в метрах; квадратными скобками обозначены формы облаков: Ci - перистые, Cs - перисто-слоистые, Cc - перисто-кучевые, Ac - высококучевые, As - высокослоистые, Sc - слоисто-кучевые, Ns - слоисто-дождевые, Cu - кучевые, Cb - кучево-дождевые. Подробнее классификацию облаков см. в Атласе облаков (PDF).
  • T - Температура воздуха - температура, измеренная на высоте 2 м над землей.
  • Td - Температура точки росы - температура, при понижении до которой содержащийся в воздухе водяной пар достигнет насыщения.
  • f - Относительная влажность воздуха - влажноcть воздуха, измеренная на высоте 2 м над землей.
  • Te - Эффективная температура - температура, которую ощущает одетый по сезону человек в тени. Характеристика душности погоды. При расчете учитывается влияние влажности воздуха и скорости ветра на теплоощущения человека.
  • Tes - Эффективная температура на солнце - температура, которую ощущает человек, с поправкой на солнечный нагрев. Характеристика знойности погоды. Зависит от высоты солнца над горизонтом, облачности и скорости ветра. Ночью, в пасмурную погоду, а также при ветре 12 м/с и более поправка равна нулю.
  • P - Атмосферное давление - приведенное к уровню моря атмосферное давление.
  • Po - Атмосферное давление - измеренное на уровне метеостанции атмосферное давление.
  • Tmin - Минимальная температура - минимум температуры воздуха на высоте 2 м над землей.
  • Tmax - Максимальная температура - максимум температуры воздуха на высоте 2 м над землей.
  • R - Количество осадков - Количество выпавших осадков за период времени, мм. При наведении курсора мыши на число - период времени, за который выпало указанное количество осадков.
  • R24 - Количество осадков - Количество выпавших осадков за 24 часа, мм.
  • S - Снежный покров - Высота снежного покрова, см. При наведении курсора мыши на число - состояние снежного покрова и степень покрытия местности в баллах.